GAOFEN-10R (44622 NORAD) Tracking and Keplerian Element Data

This shows tracking and keplerian element data for the satellite.

Feedback or suggestion? Click here.




ElementValue
Catalog44622
NameGAOFEN-10R
Epoch Orbit28858
Epoch Day35.20642436
Epoch Year2025
RAAN342.3195
Inclination97.991
Eccentricity0.0003774
Argument of Perigee311.2435
Mean Anonmoly48.8452
Mean Motion14.82357532
Decay Rate3.803E-05
L11 44622U 19066A 25035.20642436 .00003803 00000+0 48184-3 0 9993
L22 44622 97.9910 342.3195 0003774 311.2435 48.8452 14.82357532288584



Live tracking and technical data element details for GAOFEN-10R (NORAD 44622). GAOFEN-10R can be tracked NOW for your location showing map with azimuth and elevation plus other details from your city location.







IsCatalogInMostPopularTable: catalog: 44622, numindb: 301
Update: records affected: 1



GetName: 44622 GAOFEN-10R

Hit Count: updated at: Thu, 15 May 2025 10:49:50 GMT